COSMOS 1275 DEB, 12709

Orbit data source: Space-Track

COSMOS 1275 DEB, 12709 is space debris in LEO originally from a launch on Thu, 04 Jun 1981 UTC launched from the Plesetsk Missile And Space Complex (PKMTR). Debris objects in space refer to the collection of defunct objects orbiting the Earth. Examples of debris include non-operational satellites, rocket bodies, and fragments generated from explosions, collisions, or faulty payload assembly.

Loading next visibility...
Identifier
12709, 1981-053BD
Orbit
LEO
Country
Flag of CISCIS
Related business
Manufacturer
Unknown
Mission
Spacecraft
Bus & Motor
Unknown
Mass
Unknown
Launch date (UTC)
1981-06-04 (44 years ago)
Launch vehicle
Unknown
Launch site
Plesetsk Missile And Space Complex (PKMTR)
Object type
Payload
Rocket body
Debris
Shape & HBR
Unknown shape, 0.3 m
Radar Cross Section
Medium (>0.1 m² and <1 m²)

Expand to show TLE details & history
Last TLE update: 12 hours ago

TLE from 12 hours ago
0 COSMOS 1275 DEB
1 12709U 81053BD  25309.15676935  .00000679  00000-0  80359-3 0  9997
2 12709  82.9695  83.5834 0122534 256.4083 284.8246 13.63333809192371
Epoch: 2025-11-05T03:45Z
TLE epoch observation values (Epoch: 2025-11-05T03:45:44.871Z)
Latitude
0.0146°
Longitude
162.51117°
Altitude
1,004.317 km
Speed
7.361 km/s
True Right ascension
17h 34m 19s
True Declination
0° 00' 52"
Sunlit
Object was in daylight at epoch
Visualization orbit readout
Latitude
Unknown
Longitude
Unknown
Altitude
Unknown
Speed
Unknown
Apparent Right ascension
Unknown
Apparent Declination
Unknown
Sunlit
N/A
Visualization observer readout
Local Sidereal Time
11:41:19
Azimuth
Unknown
Elevation
Unknown
Doppler factor
Unknown
Orbital elements
Apogee altitude
1,111.426 km
Perigee altitude
930.103 km
Semi-major axis
7,398.901 km
Eccentricity
0.01225
Inclination
82.9695°
RAAN
83.5834°
Arg. of periapsis
256.4083°
True anomaly
283.46199°
Mean anomaly
284.8246°
Eccentric anomaly
284.14381°
Mean motion
3.4103 °/min
Orbital period
105.56 mins
BSTAR
0.00080359
Loading maneuver chart data...
Computing Atmospheric mass density...

Documentation

Showing up to 5 results
|